TimeCDT,TemperatureF,Dew PointF,Humidity,Sea Level PressureIn,VisibilityMPH,Wind Direction,Wind SpeedMPH,Gust SpeedMPH,PrecipitationIn,Events,Conditions,WindDirDegrees,DateUTC
12:08 AM,46.6,46.0,98,29.74,10.0,WNW,5.8,-,N/A,,Overcast,290,2012-10-20 05:08:00
12:29 AM,44.1,43.7,99,29.74,10.0,Calm,Calm,-,N/A,,Mostly Cloudy,0,2012-10-20 05:29:00
12:49 AM,42.4,42.1,99,29.74,10.0,Calm,Calm,-,N/A,,Scattered Clouds,0,2012-10-20 05:49:00
1:08 AM,41.5,41.4,99,29.75,10.0,West,4.6,-,N/A,,Mostly Cloudy,270,2012-10-20 06:08:00
1:28 AM,42.8,42.8,100,29.74,10.0,Calm,Calm,-,N/A,,Overcast,0,2012-10-20 06:28:00
1:48 AM,42.3,42.3,100,29.74,10.0,Calm,Calm,-,N/A,,Overcast,0,2012-10-20 06:48:00
2:09 AM,42.8,42.8,100,29.75,10.0,WSW,3.5,-,N/A,,Overcast,250,2012-10-20 07:09:00
2:28 AM,43.3,43.3,100,29.75,7.0,West,4.6,-,N/A,,Overcast,260,2012-10-20 07:28:00
2:49 AM,43.5,43.5,100,29.75,7.0,West,3.5,-,N/A,,Overcast,260,2012-10-20 07:49:00
3:09 AM,44.1,44.1,100,29.75,7.0,West,4.6,-,N/A,,Overcast,260,2012-10-20 08:09:00
3:28 AM,44.1,44.1,100,29.75,7.0,West,3.5,-,N/A,,Overcast,260,2012-10-20 08:28:00
3:49 AM,44.1,44.1,100,29.75,7.0,Calm,Calm,-,N/A,,Overcast,0,2012-10-20 08:49:00
4:09 AM,44.1,44.1,100,29.75,7.0,Calm,Calm,-,N/A,,Overcast,0,2012-10-20 09:09:00
4:29 AM,44.1,44.1,100,29.76,5.0,WSW,4.6,-,N/A,,Overcast,250,2012-10-20 09:29:00
4:49 AM,44.1,44.1,100,29.76,5.0,WSW,3.5,-,N/A,,Overcast,250,2012-10-20 09:49:00
5:09 AM,44.1,44.1,100,29.76,4.0,West,3.5,-,N/A,,Overcast,260,2012-10-20 10:09:00
5:28 AM,44.1,44.1,100,29.76,3.0,Calm,Calm,-,N/A,,Overcast,0,2012-10-20 10:28:00
5:49 AM,44.1,44.1,100,29.76,2.5,Calm,Calm,-,N/A,,Overcast,0,2012-10-20 10:49:00
6:09 AM,43.7,43.7,100,29.76,3.0,WSW,3.5,-,N/A,,Overcast,240,2012-10-20 11:09:00
6:28 AM,43.3,43.3,100,29.76,1.5,SW,3.5,-,N/A,,Overcast,230,2012-10-20 11:28:00
6:49 AM,43.7,43.7,100,29.78,1.2,Calm,Calm,-,N/A,,Overcast,0,2012-10-20 11:49:00
7:09 AM,43.3,43.3,100,29.78,1.2,SW,3.5,-,N/A,,Overcast,230,2012-10-20 12:09:00
7:29 AM,43.0,43.2,100,29.78,0.8,Calm,Calm,-,N/A,,Overcast,0,2012-10-20 12:29:00
7:49 AM,43.0,43.2,100,29.78,4.0,SW,3.5,-,N/A,,Overcast,220,2012-10-20 12:49:00
8:07 AM,43.0,43.2,100,29.78,1.8,SW,4.6,-,N/A,,Overcast,220,2012-10-20 13:07:00
8:28 AM,43.0,43.2,100,29.79,0.8,SW,4.6,-,N/A,,Overcast,220,2012-10-20 13:28:00
8:48 AM,43.2,43.3,100,29.79,5.0,South,5.8,-,N/A,,Overcast,190,2012-10-20 13:48:00
9:09 AM,42.8,43.0,100,29.79,5.0,SSW,3.5,-,N/A,,Overcast,210,2012-10-20 14:09:00
9:29 AM,43.0,43.2,100,29.80,4.0,South,5.8,-,N/A,,Overcast,180,2012-10-20 14:29:00
9:49 AM,43.3,43.5,100,29.80,5.0,South,6.9,-,N/A,,Overcast,190,2012-10-20 14:49:00
10:09 AM,44.1,44.1,100,29.80,10.0,South,5.8,-,N/A,,Overcast,180,2012-10-20 15:09:00
10:28 AM,44.1,44.1,100,29.81,7.0,SSW,5.8,-,N/A,,Overcast,200,2012-10-20 15:28:00
10:48 AM,44.1,43.9,99,29.81,10.0,South,6.9,-,N/A,,Overcast,180,2012-10-20 15:48:00
11:08 AM,44.1,43.9,99,29.81,7.0,South,8.1,-,N/A,,Overcast,180,2012-10-20 16:08:00
11:29 AM,46.4,46.0,99,29.80,7.0,SSW,8.1,-,N/A,,Overcast,200,2012-10-20 16:29:00
11:48 AM,46.6,45.9,97,29.80,10.0,South,8.1,-,N/A,,Overcast,170,2012-10-20 16:48:00
12:09 PM,46.6,45.7,97,29.80,10.0,South,6.9,-,N/A,,Overcast,170,2012-10-20 17:09:00
12:29 PM,47.3,45.9,95,29.80,10.0,SSW,6.9,-,N/A,,Overcast,200,2012-10-20 17:29:00
12:49 PM,49.1,47.1,93,29.78,10.0,South,6.9,-,N/A,,Overcast,190,2012-10-20 17:49:00
1:09 PM,49.1,46.4,90,29.78,10.0,South,6.9,-,N/A,,Overcast,190,2012-10-20 18:09:00
1:29 PM,49.1,45.9,89,29.77,10.0,South,5.8,-,N/A,,Overcast,180,2012-10-20 18:29:00
1:49 PM,49.1,44.8,85,29.76,10.0,SSE,5.8,-,N/A,,Overcast,150,2012-10-20 18:49:00
2:09 PM,49.6,45.5,86,29.76,10.0,South,9.2,-,N/A,,Overcast,170,2012-10-20 19:09:00
2:29 PM,49.6,45.3,85,29.76,10.0,SSE,6.9,-,N/A,,Overcast,150,2012-10-20 19:29:00
2:48 PM,50.9,46.2,84,29.76,10.0,SSE,6.9,-,N/A,,Overcast,150,2012-10-20 19:48:00
3:09 PM,51.3,46.6,84,29.76,10.0,SSE,5.8,-,N/A,,Overcast,150,2012-10-20 20:09:00
3:29 PM,51.8,47.1,84,29.75,10.0,SSE,4.6,-,N/A,,Overcast,150,2012-10-20 20:29:00
3:49 PM,50.4,46.4,86,29.76,10.0,SSE,5.8,-,N/A,,Overcast,160,2012-10-20 20:49:00
4:09 PM,50.4,46.2,86,29.76,10.0,SSE,6.9,-,N/A,,Overcast,150,2012-10-20 21:09:00
4:29 PM,51.8,47.3,85,29.76,10.0,SSE,6.9,-,N/A,,Overcast,150,2012-10-20 21:29:00
4:48 PM,51.8,47.3,85,29.76,10.0,SSE,4.6,-,N/A,,Overcast,150,2012-10-20 21:48:00
5:08 PM,51.8,47.3,85,29.76,10.0,SSE,5.8,-,N/A,,Overcast,150,2012-10-20 22:08:00
5:29 PM,51.8,47.3,85,29.76,10.0,SSE,4.6,-,N/A,,Overcast,150,2012-10-20 22:29:00
5:49 PM,51.8,47.3,85,29.76,10.0,SSE,3.5,-,N/A,,Mostly Cloudy,160,2012-10-20 22:49:00
6:09 PM,49.5,45.7,87,29.76,10.0,Calm,Calm,-,N/A,,Scattered Clouds,0,2012-10-20 23:09:00
6:28 PM,49.1,46.4,90,29.76,10.0,Calm,Calm,-,N/A,,Scattered Clouds,0,2012-10-20 23:28:00
6:49 PM,47.5,45.0,91,29.76,10.0,ESE,6.9,-,N/A,,Clear,110,2012-10-20 23:49:00
7:09 PM,46.2,44.6,94,29.76,10.0,ESE,6.9,-,N/A,,Clear,110,2012-10-21 00:09:00
7:29 PM,46.0,44.6,95,29.76,10.0,SE,4.6,-,N/A,,Clear,130,2012-10-21 00:29:00
7:49 PM,43.7,42.6,96,29.76,10.0,ESE,6.9,-,N/A,,Clear,110,2012-10-21 00:49:00
8:09 PM,43.2,42.4,97,29.76,10.0,ESE,8.1,-,N/A,,Clear,110,2012-10-21 01:09:00
8:28 PM,44.1,43.3,97,29.76,10.0,ESE,8.1,-,N/A,,Clear,120,2012-10-21 01:28:00
8:49 PM,44.1,43.3,97,29.78,10.0,ESE,6.9,-,N/A,,Clear,120,2012-10-21 01:49:00
9:09 PM,44.1,43.3,97,29.78,10.0,SE,5.8,-,N/A,,Clear,130,2012-10-21 02:09:00
9:29 PM,44.1,43.3,97,29.78,10.0,ESE,5.8,-,N/A,,Clear,120,2012-10-21 02:29:00
9:49 PM,44.2,43.5,97,29.78,10.0,SE,5.8,-,N/A,,Clear,130,2012-10-21 02:49:00
10:06 PM,46.4,45.5,97,29.78,10.0,SE,6.9,-,N/A,,Clear,130,2012-10-21 03:06:00
10:29 PM,46.6,45.7,97,29.78,10.0,SE,6.9,-,N/A,,Clear,140,2012-10-21 03:29:00
10:48 PM,46.6,45.5,96,29.79,10.0,SE,8.1,-,N/A,,Clear,140,2012-10-21 03:48:00
11:28 PM,46.6,45.1,95,29.78,10.0,SE,6.9,-,N/A,,Clear,140,2012-10-21 04:28:00
11:49 PM,46.6,45.1,95,29.78,10.0,SE,10.4,-,N/A,,Clear,140,2012-10-21 04:49:00